TimeCST,TemperatureF,Dew PointF,Humidity,Sea Level PressureIn,VisibilityMPH,Wind Direction,Wind SpeedMPH,Gust SpeedMPH,PrecipitationIn,Events,Conditions,WindDirDegrees,DateUTC
12:52 AM,24.1,21.0,88,30.16,7.0,ENE,10.4,-,N/A,,Overcast,60,2012-11-29 06:52:00
1:52 AM,21.9,21.0,96,30.15,6.0,ENE,11.5,-,N/A,,Overcast,70,2012-11-29 07:52:00
2:52 AM,19.9,19.0,96,30.14,4.0,ENE,13.8,-,N/A,,Overcast,70,2012-11-29 08:52:00
3:29 AM,17.6,12.2,79,30.07,10.0,ENE,11.5,-,N/A,,Overcast,70,2012-11-29 09:29:00
3:50 AM,15.8,12.2,86,30.07,10.0,ENE,12.7,-,N/A,,Overcast,70,2012-11-29 09:50:00
3:52 AM,16.0,12.0,84,30.15,10.0,ENE,12.7,-,N/A,,Overcast,70,2012-11-29 09:52:00
4:52 AM,15.1,10.9,84,30.14,10.0,East,11.5,-,N/A,,Overcast,80,2012-11-29 10:52:00
5:52 AM,15.1,10.0,80,30.15,10.0,East,12.7,-,N/A,,Overcast,80,2012-11-29 11:52:00
6:52 AM,12.9,8.1,81,30.16,10.0,East,12.7,-,N/A,,Overcast,90,2012-11-29 12:52:00
7:35 AM,12.2,8.6,85,30.09,10.0,ENE,10.4,-,N/A,,Scattered Clouds,70,2012-11-29 13:35:00
7:52 AM,12.9,7.0,77,30.17,10.0,ENE,11.5,-,N/A,,Clear,70,2012-11-29 13:52:00
8:52 AM,12.9,6.1,74,30.17,10.0,ENE,12.7,-,N/A,,Clear,70,2012-11-29 14:52:00
9:52 AM,14.0,6.1,71,30.17,10.0,ENE,13.8,-,N/A,,Scattered Clouds,70,2012-11-29 15:52:00
10:02 AM,14.0,6.8,73,30.08,10.0,East,13.8,-,N/A,,Mostly Cloudy,80,2012-11-29 16:02:00
10:25 AM,15.8,6.8,68,30.08,10.0,East,11.5,-,N/A,,Overcast,100,2012-11-29 16:25:00
10:52 AM,15.1,7.0,70,30.17,10.0,East,12.7,-,N/A,,Overcast,90,2012-11-29 16:52:00
11:52 AM,17.1,9.0,71,30.15,10.0,East,10.4,-,N/A,,Overcast,80,2012-11-29 17:52:00
12:52 PM,18.0,10.0,71,30.14,10.0,East,10.4,-,N/A,,Overcast,80,2012-11-29 18:52:00
1:52 PM,19.0,12.0,74,30.13,10.0,East,12.7,-,N/A,,Mostly Cloudy,90,2012-11-29 19:52:00
2:38 PM,19.4,12.2,74,30.02,10.0,East,11.5,-,N/A,,Mostly Cloudy,90,2012-11-29 20:38:00
2:52 PM,19.0,12.0,74,30.11,10.0,East,13.8,-,N/A,,Partly Cloudy,80,2012-11-29 20:52:00
3:27 PM,19.4,12.2,74,30.02,10.0,East,12.7,-,N/A,,Mostly Cloudy,90,2012-11-29 21:27:00
3:52 PM,19.9,12.9,74,30.11,10.0,East,13.8,-,N/A,,Mostly Cloudy,90,2012-11-29 21:52:00
4:52 PM,19.9,12.9,74,30.12,10.0,East,10.4,-,N/A,,Overcast,90,2012-11-29 22:52:00
5:52 PM,19.9,14.0,78,30.14,10.0,ESE,10.4,-,N/A,,Overcast,110,2012-11-29 23:52:00
6:37 PM,19.4,14.0,80,30.07,10.0,East,10.4,-,N/A,,Overcast,100,2012-11-30 00:37:00
6:52 PM,19.9,14.0,78,30.18,10.0,East,6.9,-,N/A,,Overcast,100,2012-11-30 00:52:00
7:52 PM,19.9,14.0,78,30.18,10.0,ESE,9.2,-,N/A,,Overcast,110,2012-11-30 01:52:00
8:52 PM,19.0,12.9,77,30.17,10.0,East,10.4,-,N/A,,Overcast,100,2012-11-30 02:52:00
9:52 PM,19.0,14.0,81,30.18,10.0,East,8.1,-,N/A,,Overcast,90,2012-11-30 03:52:00
10:52 PM,19.9,15.1,81,30.17,10.0,East,4.6,-,N/A,,Overcast,100,2012-11-30 04:52:00
11:28 PM,19.4,15.8,86,30.07,9.0,SE,6.9,-,N/A,,Overcast,130,2012-11-30 05:28:00
11:52 PM,19.9,17.1,89,30.17,8.0,ESE,4.6,-,N/A,,Overcast,120,2012-11-30 05:52:00